Home > Weather > Mutsamudu > Past weeks

Flag for Comoros Past Weather in Mutsamudu, Comoros — Yesterday and Last 2 Weeks

Now
72 °F

Mild.


Feels Like: 67 °F
Forecast: 70 / 76 °F
Wind: 2 mph from North

Location: Dzaoudzi / Pamanzi Mayotte

Current Time: Jul 24, 2016 at 12:28:04 AM

Latest Report: Jul 24, 2016 at 12:00 AM


Visibility: N/A

Pressure: 30.01 "Hg

Humidity: 94%

Dew Point: 70 °F

Location of MutsamuduLocation

Past Weather in Mutsamudu — Graph

°F

Mutsamudu Temperature Yesterday

Maximum temperature yesterday: 82 °F (at 11:00 AM)
Minimum temperature yesterday: 70 °F (at 4:00 AM)
Average temperature yesterday: 76 °F

High & Low Weather Summary for the Past Weeks

 TemperatureHumidityPressure
High82 °F (Jul 9, 11:00 AM)94% (Jul 16, 2:30 AM)30.12 "Hg (Jul 16, 2:30 AM)
Low68 °F (Jul 15, 1:00 AM)1% (Jul 14, 8:00 AM)29.95 "Hg (Jul 20, 2:30 PM)
Average77 °F68%30.05 "Hg
* Reported Jul 8 11:00 PM — Jul 23 11:00 PM, Mutsamudu, Weather by CustomWeather, © 2016

Note: Actual official high and low records may vary slightly from our data, if they occured in-between our weather recording intervals... More about our weather records

Advertising

Mutsamudu Weather History for the Previous 24 Hours

Scroll right to see more
 ConditionsComfort  
Time TempWeatherWind HumidityBarometerVisibility
11:00 PM
Sat, Jul 23
73 °FMild.1 mph89%30.01 "HgN/A
10:30 PM73 °FMild.3 mph89%30.04 "HgN/A
10:00 PM75 °FPassing clouds.5 mph83%30.04 "HgN/A
9:30 PM73 °FPartly cloudy.3 mph89%30.04 "HgN/A
9:00 PM73 °FPassing clouds.2 mph89%30.04 "HgN/A
8:30 PM73 °FPassing clouds.3 mph89%30.01 "HgN/A
8:00 PM75 °FPassing clouds.2 mph83%30.01 "HgN/A
7:30 PM73 °FPassing clouds.2 mph83%30.01 "HgN/A
7:00 PM75 °FMild.1 mph83%30.01 "HgN/A
6:30 PM77 °FPassing clouds.3 mph79%30.01 "HgN/A
6:00 PM77 °FPassing clouds.No wind79%29.98 "HgN/A
5:30 PM79 °FPassing clouds.1 mph74%29.98 "HgN/A
5:00 PM81 °FPassing clouds.5 mph70%29.98 "HgN/A
4:30 PM79 °FScattered clouds.6 mph74%29.98 "HgN/A
4:00 PM79 °FScattered clouds.7 mph74%29.98 "HgN/A
3:30 PM81 °FScattered clouds.7 mph70%29.98 "HgN/A
3:00 PM81 °FPartly sunny.7 mph74%29.98 "HgN/A
2:30 PM81 °FPartly sunny.8 mph74%29.98 "HgN/A
2:00 PM81 °FScattered clouds.7 mph74%29.98 "HgN/A
1:30 PM82 °FScattered clouds.7 mph70%30.01 "HgN/A
1:04 PM82 °FPassing clouds.6 mph70%30.01 "HgN/A
12:30 PM82 °FPassing clouds.6 mph66%30.04 "HgN/A
12:00 PM82 °FPassing clouds.5 mph66%30.04 "HgN/A
11:30 AM82 °FPassing clouds.6 mph66%30.04 "HgN/A
11:00 AM82 °FPassing clouds.7 mph66%30.04 "HgN/A
10:30 AM81 °FPassing clouds.7 mph66%30.07 "HgN/A
10:00 AM81 °FPartly sunny.6 mph70%30.07 "HgN/A
9:30 AM81 °FPartly sunny.6 mph74%30.07 "HgN/A
9:00 AM81 °FPartly sunny.6 mph70%30.07 "HgN/A
8:30 AM79 °FPartly sunny.5 mph70%30.07 "HgN/A
8:00 AM77 °FPartly sunny.3 mph79%30.04 "HgN/A
7:30 AM73 °FSunny.1 mph94%30.04 "Hg10 mi
7:00 AM72 °FSunny.2 mph88%30.04 "Hg10 mi
6:30 AM70 °FSunny.2 mph94%30.01 "Hg10 mi
6:00 AM72 °FClear.3 mph88%30.01 "Hg10 mi
5:30 AM70 °FClear.No wind94%30.01 "Hg10 mi
5:00 AM72 °FMild.3 mph88%30.01 "HgN/A
4:30 AM72 °FMild.6 mph94%30.01 "HgN/A
4:00 AM70 °FMild.5 mph94%30.01 "HgN/A
3:30 AM72 °FMild.No wind88%29.98 "HgN/A
3:00 AM72 °FMild.2 mph88%30.01 "HgN/A
2:30 AM72 °FMild.3 mph88%30.01 "HgN/A
2:00 AM72 °FMild.2 mph88%30.01 "HgN/A
1:30 AM72 °FMild.2 mph88%30.01 "HgN/A
1:00 AM73 °FMild.2 mph89%30.04 "HgN/A
12:30 AM73 °FMild.3 mph89%30.04 "HgN/A
12:00 AM73 °FMild.3 mph89%30.04 "HgN/A
Weather by CustomWeather, © 2016

See weather overviewHow to use our weather pages